Regional Weather Roundup
Issued by NWS Huntsville, AL

Home | Current Version | Previous Version | Text Only | Print | Product List | Glossary On
Versions: 1 2 3 4 5 6 7 8 9 10 11 12 13 14 15 16 17 18 19 20 21 22 23 24 25 26 27 28 29 30 31 32 33 34 35 36 37 38 39 40 41 42 43 44 45 46 47 48 49 50
000
ASUS44 KHUN 260610
RWRHUN

WEATHER ROUNDUP FOR THE TENNESSEE VALLEY
NATIONAL WEATHER SERVICE HUNTSVILLE AL
100 AM CDT TUE MAY 26 2015

ALZ001>004-260700-
NORTHWEST ALABAMA

CITY           SKY/WX    TMP DP  RH WIND       PRES   REMARKS
COURTLAND HCN    N/A     66 N/A N/A SE6         N/A
BANKHEAD NF      N/A     64  64  98 E1          N/A
RUSSELLVILLE     N/A     66 N/A N/A MISG        N/A
SHOALS AIRPORT CLEAR     68  64  87 SE9       30.11F
6HR MIN TEMP:  67; 6HR MAX TEMP:  73;

SHOALS TVA RES   N/A     68 N/A N/A MISG        N/A
$$

ALZ005>007-016-260700-
NORTH CENTRAL ALABAMA

CITY           SKY/WX    TMP DP  RH WIND       PRES   REMARKS
CULLMAN AG STN   N/A     64 N/A N/A E5          N/A
DECATUR AP     PTCLDY    66  65  96 SE6       30.13F
6HR MIN TEMP:  66; 6HR MAX TEMP:  71;

HUNTSVILLE AP  CLEAR     68  64  87 SE9       30.13F
6HR MIN TEMP:  68; 6HR MAX TEMP:  73;

HUN NWS/UAH      N/A     67  63  89 SE8         N/A
MERIDIANVILLE  CLEAR     66  61  82 SE7       30.14F
REDSTONE ARSN  CLEAR     66  65  95 SE7       30.13
VINEMONT AP    FAIR      65  64  96 SE6       30.16F
$$

ALZ008>010-260700-
NORTHEAST ALABAMA

CITY           SKY/WX    TMP DP  RH WIND       PRES   REMARKS
ALBERTVILLE    MOCLDY    64  64 100 SE3       30.16F
FORT PAYNE     MOCLDY    66  63  88 CALM      30.18F
SCOTTSBORO HCN   N/A     66 N/A N/A MISG        N/A
VALLEY HEAD      N/A     68 N/A N/A MISG        N/A
$$

TNZ076-096-097-260700-
SOUTHEASTERN MIDDLE TENNESSEE

CITY           SKY/WX    TMP DP  RH WIND       PRES   REMARKS
TULLAHOMA      CLEAR     64  64 100 SE6       30.16F
WINCHESTER     CLEAR     66  64  94 SE12      30.16F
$$

...SURROUNDING SITES...

CITY           SKY/WX    TMP DP  RH WIND       PRES   REMARKS
ATLANTA        CLOUDY    70  66  88 SE8       30.22S
ANNISTON       CLOUDY    69  65  86 NE6       30.18F
BIRMINGHAM     MOCLDY    67  65  93 SE8       30.16F
CHATTANOOGA    CLOUDY    67  66  97 CALM      30.19F
CORINTH        FAIR      70  66  88 SE10G16   30.04F
DALTON         LGT RAIN  66  66 100 CALM      30.21S
GADSDEN        CLOUDY   N/A N/A N/A E3        30.16F
GOLDEN TRNGL   PTCLDY    70  64  83 SE12      30.06F
HALEYVILLE     MOCLDY    65  65 100 SE5       30.14F
JACKSON TN     CLOUDY    72  67  84 VRB7      30.01F
LEWISBURG      FAIR      66  63  90 SE3       30.12F
MEMPHIS        CLOUDY    75  68  78 S13G18    29.97F
NASHVILLE      MOCLDY    67  64  90 SE6       30.11F
OXFORD MS      FAIR      68  64  88 SE9G18    30.02F
ROME           CLOUDY    68  67  96 CALM      30.19F
SAVANNAH       CLEAR     70  32  24 S8        30.06F
TUPELO         PTCLDY    69  66  90 S9        30.04F
TUSCALOOSA     MOCLDY    69  66  90 E5        30.11F
$$

...GULF COAST WEATHER...

CITY           SKY/WX    TMP DP  RH WIND       PRES   REMARKS
GULFPORT       LGT RAIN  78  74  87 S9        30.07S
PASCAGOULA     CLOUDY    79  76  90 SE13      30.08F
MOBILE         CLOUDY    76  75  97 S13       30.08F
GULF SHORES    MOCLDY    78  75  90 SE7       30.10F
PENSACOLA      MOCLDY    79  75  87 SE8       30.10F
DESTIN         CLOUDY    78  74  87 SE10      30.11F
PANAMA CITY    MOCLDY    73  69  87 E3        30.13
APPALACHICOLA  MOCLDY    76  70  82 CALM      30.13S
$$



USA.gov is the U.S. government's official web portal to all federal, state and local government web resources and services.